Lambertville, MI

10:02 PM EDT on July 25, 2017 (GMT -0400)
Lambertville

Weather History for KDUH - October, 2012

Change the Weather History Date:

Sunday, October 14, 2012

  Actual Average (KTOL) Record (KTOL)
Temperature  
Mean Temperature 64 °F -  
Max Temperature 71 °F 64 °F 86 °F (1897)
Min Temperature 57 °F 42 °F 27 °F (1874)
Growing Degree Days 14 (Base 50)    
Moisture  
Dew Point 58 °F    
Average Humidity 73    
Maximum Humidity 82    
Minimum Humidity 62    
Precipitation  
Precipitation 0.00 in - - ()
Sea Level Pressure  
Sea Level Pressure 29.72 in    
Wind  
Wind Speed 11 mph (SSW)    
Max Wind Speed 23 mph    
Max Gust Speed 40 mph    
Visibility 10 miles    
Events Rain    
Averages and records for this station are not official NWS values.
T = Trace of Precipitation, MM = Missing Value Source: NWS Daily Summary

Daily Weather History Graph

Daily Weather History Graph

Search for Another Location

Airport or City:

Trip Planner

Search our weather history database for the weather conditions in past years. The results will help you decide how hot, cold, wet, or windy it might be!

Date:

Astronomy

Oct. 14, 2012 Rise Set
Actual Time 7:46 AM EDT 6:54 PM EDT
Civil Twilight 7:18 AM EDT 7:22 PM EDT
Nautical Twilight 6:45 AM EDT 7:54 PM EDT
Astronomical Twilight 6:13 AM EDT 8:26 PM EDT
Moon 6:43 AM EDT (10/14) 6:13 PM EDT (10/14)
Length of Visible Light 12h 03m
Length of Day
11h 07m
Waning Crescent, 1% of the Moon is Illuminated
Oct 14
Waning Crescent
Oct 15
New
Oct 21
First Quarter
Oct 29
Full
Nov 6
Last Quarter

Hourly Weather History & Observations

Time (EDT) Temp. Dew Point Humidity Pressure Visibility Wind Dir Wind Speed Gust Speed Precip Events Conditions
12:15 AM 65.5 °F 59.4 °F 81% 29.92 in 10.0 mi SSW 6.9 mph - N/A   Mostly Cloudy
12:35 AM 65.8 °F 59.7 °F 81% 29.92 in 10.0 mi SSW 11.5 mph - N/A   Mostly Cloudy
1:15 AM 66.2 °F 60.1 °F 81% 29.90 in 10.0 mi SSW 11.5 mph 18.4 mph N/A   Mostly Cloudy
1:35 AM 66.2 °F 60.3 °F 81% 29.90 in 7.0 mi SSW 10.4 mph - N/A   Mostly Cloudy
1:55 AM 65.8 °F 60.3 °F 82% 29.90 in 7.0 mi SSW 10.4 mph 19.6 mph N/A   Scattered Clouds
2:15 AM 66.2 °F 60.6 °F 82% 29.90 in 7.0 mi SSW 11.5 mph 16.1 mph N/A   Mostly Cloudy
2:35 AM 66.4 °F 60.8 °F 82% 29.90 in 7.0 mi SSW 10.4 mph 16.1 mph N/A   Mostly Cloudy
2:55 AM 67.1 °F 60.8 °F 80% 29.89 in 7.0 mi SSW 11.5 mph 17.3 mph N/A   Mostly Cloudy
3:35 AM 67.1 °F 60.8 °F 80% 29.89 in 10.0 mi SW 10.4 mph 17.3 mph N/A   Mostly Cloudy
3:55 AM 66.9 °F 60.8 °F 81% 29.88 in 10.0 mi SSW 10.4 mph - N/A   Scattered Clouds
4:15 AM 66.6 °F 60.8 °F 82% 29.87 in 10.0 mi SSW 8.1 mph 16.1 mph N/A   Scattered Clouds
4:35 AM 66.2 °F 60.6 °F 82% 29.88 in 10.0 mi SSW 8.1 mph - N/A   Scattered Clouds
4:55 AM 66.2 °F 60.4 °F 82% 29.88 in 10.0 mi SSW 10.4 mph 16.1 mph N/A   Scattered Clouds
5:15 AM 66.2 °F 60.4 °F 82% 29.87 in 10.0 mi SSW 5.8 mph - N/A   Scattered Clouds
5:35 AM 66.2 °F 60.3 °F 81% 29.87 in 10.0 mi SSW 9.2 mph - N/A   Mostly Cloudy
5:55 AM 66.4 °F 60.3 °F 81% 29.87 in 10.0 mi SSW 9.2 mph - N/A   Overcast
6:15 AM 66.2 °F 59.9 °F 80% 29.87 in 10.0 mi SSW 8.1 mph 17.3 mph N/A   Mostly Cloudy
6:35 AM 65.8 °F 59.9 °F 81% 29.87 in 10.0 mi South 9.2 mph 19.6 mph N/A   Scattered Clouds
6:55 AM 65.8 °F 59.5 °F 80% 29.86 in 10.0 mi SSW 10.4 mph 17.3 mph N/A   Scattered Clouds
7:15 AM 65.8 °F 59.4 °F 80% 29.86 in 10.0 mi South 9.2 mph - N/A   Scattered Clouds
7:35 AM 65.8 °F 59.2 °F 79% 29.85 in 10.0 mi SSW 11.5 mph 18.4 mph N/A   Mostly Cloudy
7:55 AM 65.5 °F 59.0 °F 80% 29.84 in 10.0 mi South 11.5 mph 16.1 mph N/A   Mostly Cloudy
8:15 AM 65.5 °F 59.0 °F 80% 29.84 in 10.0 mi SSW 10.4 mph 17.3 mph N/A   Scattered Clouds
8:35 AM 65.7 °F 58.6 °F 78% 29.84 in 10.0 mi SSW 12.7 mph 19.6 mph N/A   Mostly Cloudy
8:55 AM 65.8 °F 58.5 °F 77% 29.84 in 10.0 mi South 9.2 mph 20.7 mph N/A   Mostly Cloudy
9:15 AM 65.8 °F 58.3 °F 77% 29.82 in 10.0 mi South 9.2 mph 18.4 mph N/A   Scattered Clouds
9:35 AM 66.4 °F 58.3 °F 75% 29.82 in 10.0 mi South 12.7 mph 16.1 mph N/A   Scattered Clouds
9:55 AM 66.2 °F 58.1 °F 75% 29.81 in 10.0 mi South 10.4 mph 19.6 mph N/A   Scattered Clouds
10:15 AM 66.7 °F 58.1 °F 74% 29.80 in 10.0 mi South 11.5 mph 18.4 mph N/A   Scattered Clouds
10:35 AM 68.0 °F 57.7 °F 70% 29.79 in 10.0 mi South 15.0 mph 25.3 mph N/A   Scattered Clouds
10:55 AM 68.0 °F 57.6 °F 69% 29.77 in 10.0 mi South 12.7 mph 20.7 mph N/A   Mostly Cloudy
11:15 AM 68.9 °F 57.4 °F 67% 29.75 in 10.0 mi South 13.8 mph 24.2 mph N/A   Mostly Cloudy
11:35 AM 68.9 °F 57.2 °F 66% 29.74 in 10.0 mi South 16.1 mph 25.3 mph N/A   Mostly Cloudy
11:55 AM 68.9 °F 56.8 °F 65% 29.73 in 10.0 mi South 16.1 mph 26.5 mph N/A   Mostly Cloudy
12:15 PM 69.1 °F 56.7 °F 65% 29.72 in 10.0 mi South 18.4 mph 28.8 mph N/A   Mostly Cloudy
12:35 PM 68.7 °F 56.5 °F 65% 29.71 in 10.0 mi South 18.4 mph 28.8 mph N/A Rain Light Rain
12:55 PM 69.3 °F 56.1 °F 63% 29.72 in 10.0 mi South 18.4 mph 25.3 mph N/A   Scattered Clouds
1:15 PM 69.1 °F 56.1 °F 63% 29.72 in 10.0 mi SSW 13.8 mph 21.9 mph N/A   Mostly Cloudy
1:35 PM 70.0 °F 56.3 °F 62% 29.71 in 10.0 mi SSW 15.0 mph 27.6 mph N/A   Overcast
1:55 PM 69.8 °F 56.5 °F 63% 29.70 in 10.0 mi SSW 12.7 mph 25.3 mph N/A   Overcast
2:15 PM 69.1 °F 57.0 °F 65% 29.70 in 10.0 mi SSW 17.3 mph 26.5 mph N/A Rain Light Rain
2:35 PM 66.7 °F 58.3 °F 74% 29.69 in 10.0 mi SSW 10.4 mph 21.9 mph N/A Rain Light Rain
2:55 PM 66.4 °F 58.5 °F 76% 29.67 in 10.0 mi South 9.2 mph 18.4 mph N/A Rain Light Rain
3:15 PM 66.2 °F 59.0 °F 78% 29.65 in 10.0 mi South 9.2 mph 19.6 mph N/A Rain Light Rain
3:35 PM 67.1 °F 59.2 °F 76% 29.64 in 10.0 mi South 10.4 mph 16.1 mph N/A   Overcast
3:55 PM 69.8 °F 59.2 °F 69% 29.62 in 10.0 mi South 11.5 mph 24.2 mph N/A   Scattered Clouds
4:15 PM 69.8 °F 58.5 °F 67% 29.61 in 10.0 mi SSW 15.0 mph 24.2 mph N/A   Mostly Cloudy
4:35 PM 69.8 °F 58.5 °F 67% 29.60 in 10.0 mi South 19.6 mph 24.2 mph N/A   Overcast
4:55 PM 69.8 °F 58.5 °F 67% 29.59 in 10.0 mi SSW 12.7 mph 24.2 mph N/A   Overcast
5:15 PM 70.5 °F 58.8 °F 66% 29.58 in 10.0 mi South 13.8 mph 29.9 mph N/A   Overcast
5:35 PM 71.6 °F 58.5 °F 63% 29.58 in 10.0 mi SSW 20.7 mph 34.5 mph N/A   Mostly Cloudy
5:55 PM 71.1 °F 58.1 °F 63% 29.57 in 10.0 mi South 13.8 mph 23.0 mph N/A   Mostly Cloudy
6:15 PM 70.7 °F 58.1 °F 64% 29.56 in 10.0 mi SSW 15.0 mph 27.6 mph N/A   Mostly Cloudy
6:35 PM 70.2 °F 58.1 °F 65% 29.55 in 10.0 mi South 18.4 mph 32.2 mph N/A   Scattered Clouds
6:55 PM 69.8 °F 58.1 °F 66% 29.54 in 10.0 mi South 15.0 mph 23.0 mph N/A   Scattered Clouds
7:15 PM 69.4 °F 58.3 °F 68% 29.54 in 10.0 mi South 12.7 mph 26.5 mph N/A   Mostly Cloudy
7:35 PM 68.9 °F 58.1 °F 68% 29.53 in 10.0 mi South 12.7 mph 19.6 mph N/A   Scattered Clouds
7:55 PM 68.0 °F 58.5 °F 71% 29.53 in 10.0 mi SSW 9.2 mph 20.7 mph N/A   Clear
8:15 PM 68.0 °F 58.1 °F 71% 29.51 in 10.0 mi SSW 12.7 mph 21.9 mph N/A   Clear
8:35 PM 68.2 °F 57.4 °F 68% 29.52 in 10.0 mi SSW 16.1 mph 24.2 mph N/A   Scattered Clouds
8:55 PM 68.0 °F 57.2 °F 68% 29.51 in 10.0 mi South 10.4 mph 19.6 mph N/A   Mostly Cloudy
9:15 PM 68.0 °F 56.8 °F 67% 29.50 in 10.0 mi SSW 13.8 mph 21.9 mph N/A   Overcast
9:35 PM 68.4 °F 55.6 °F 64% 29.50 in 10.0 mi SSW 12.7 mph 28.8 mph N/A   Overcast
9:55 PM 64.6 °F 55.8 °F 73% 29.51 in 10.0 mi WSW 15.0 mph 31.1 mph N/A Rain Light Rain
10:15 PM 64.2 °F 55.2 °F 73% 29.52 in 10.0 mi SW 13.8 mph 27.6 mph N/A   Mostly Cloudy
10:35 PM 63.5 °F 55.4 °F 75% 29.52 in 10.0 mi WSW 16.1 mph 33.4 mph N/A Rain Rain
10:55 PM 61.3 °F 51.8 °F 71% 29.54 in 10.0 mi SW 23.0 mph 40.3 mph N/A   Overcast
11:15 PM 59.7 °F 51.1 °F 73% 29.55 in 10.0 mi WSW 16.1 mph 29.9 mph N/A   Overcast
11:35 PM 58.3 °F 50.4 °F 75% 29.56 in 10.0 mi WSW 17.3 mph 26.5 mph N/A   Overcast
11:55 PM 57.2 °F 50.0 °F 77% 29.57 in 10.0 mi WSW 15.0 mph 31.1 mph N/A   Overcast